Hourly Weather Roundup
Issued by NWS Central Illinois

Home | Current Version | Previous Version | Text Only | Print | Product List | Glossary On
Versions: 1 2 3 4 5 6 7 8 9 10 11 12 13 14 15 16 17 18 19 20 21 22 23 24 25 26 27 28 29 30 31 32 33 34 35 36 37 38 39 40 41 42 43 44 45 46 47 48 49 50
000
NZUS43 KILX 301210
HWRILX

Area Weather Roundup
National Weather Service Lincoln IL
700 AM CDT THU MAR 30 2017

NOTE:  "FAIR" indicates few or no clouds below 12,000 feet, with
       no sigificant weather and/or obstructions to visibility.


CITY           SKY/WX    TMP DP  RH WIND       PRES   REMARKS
Bloomington    CLOUDY    46  45  96 E15       29.70F
6HR MIN TEMP:  45; 6HR MAX TEMP:  48; 6HR PCP:  0.34;

Champaign      CLOUDY    49  46  90 E14       29.71S
6HR MIN TEMP:  49; 6HR MAX TEMP:  53; 6HR PCP:  0.20;

Danville       LGT RAIN  48  47  97 NE7       29.72S
6HR MIN TEMP:  47; 6HR MAX TEMP:  51; 6HR PCP:  0.22;

Decatur        CLOUDY    51  49  92 E13       29.67S
6HR MIN TEMP:  51; 6HR MAX TEMP:  53; 6HR PCP:  0.39;

Effingham      CLOUDY    57  56  98 E9        29.70R
6HR MIN TEMP:  57; 6HR MAX TEMP:  58; 6HR PCP:  0.34;

Flora          CLOUDY    58  56  91 E5        29.69S
6HR MIN TEMP:  58; 6HR MAX TEMP:  62; 6HR PCP:  0.30;

Galesburg      CLOUDY    44  43  95 NE7       29.67R
6HR MIN TEMP:  44; 6HR MAX TEMP:  46; 6HR PCP:  0.17;

Jacksonville   RAIN      53  52  97 E8        29.61F
6HR MIN TEMP:  51; 6HR MAX TEMP:  55; 6HR PCP:  0.10;

Lacon          LGT RAIN  43  43  99 E13G20    29.70S
6HR MIN TEMP:  43; 6HR MAX TEMP:  45; 6HR PCP:  0.55;

Lawrenceville  CLOUDY    56  53  90 NE7       29.71F
6HR MIN TEMP:  55; 6HR MAX TEMP:  58; 6HR PCP:  0.06;

Litchfield     CLOUDY    56  56  98 E3        29.63S
6HR MIN TEMP:  55; 6HR MAX TEMP:  58; 6HR PCP:  0.36;

$$


CITY           SKY/WX    TMP DP  RH WIND       PRES   REMARKS
Lincoln        MOCLDY    51  50  99 E5        29.66S
6HR MIN TEMP:  50; 6HR MAX TEMP:  54;

Macomb         CLOUDY    46  45  99 NE10      29.66F FOG
6HR MIN TEMP:  45; 6HR MAX TEMP:  50; 6HR PCP:  0.22;

Mattoon        CLOUDY    55  55 100 SE10      29.68R
6HR MIN TEMP:  54; 6HR MAX TEMP:  56; 6HR PCP:  0.06;

Mt Carmel AP   CLOUDY    56  53  88 E7        29.70F
6HR MIN TEMP:  56; 6HR MAX TEMP:  60;

Olney-Noble AP CLOUDY    57  57 100 E7        29.70S
Paris AP       CLOUDY    54  51  92 E14       29.72F
6HR MIN TEMP:  52; 6HR MAX TEMP:  55; 6HR PCP:  0.08;

Peoria         CLOUDY    45  45 100 E15       29.67F
6HR MIN TEMP:  45; 6HR MAX TEMP:  47; 6HR PCP:  0.28;

Pontiac        CLOUDY    45  44  98 E25G31    29.70F
6HR MIN TEMP:  44; 6HR MAX TEMP:  45; 6HR PCP:  0.40;

Rantoul        CLOUDY    47  46  96 E16       29.71F
6HR MIN TEMP:  47; 6HR MAX TEMP:  53; 6HR PCP:  0.04;

Robinson       CLOUDY    53  52  95 E5        29.73S
6HR MIN TEMP:  53; 6HR MAX TEMP:  56; 6HR PCP:  0.04;

Springfield    CLOUDY    54  53  97 E10       29.64S
6HR MIN TEMP:  53; 6HR MAX TEMP:  55; 6HR PCP:  0.46;

Taylorville    CLOUDY    54  54 100 E9        29.65F
$$

...REGIONAL REPORTS...


CITY           SKY/WX    TMP DP  RH WIND       PRES   REMARKS
Chicago O`Hare LGT RAIN  42  39  89 E20G25    29.81F FOG     WCI  33
Kankakee       CLOUDY    44  42  93 E15G22    29.78F
Moline         LGT RAIN  45  42  89 E15       29.69F FOG
Mount Sterling CLOUDY    49  49  99 E9        29.61S FOG
Mount Vernon   CLOUDY    61  58  90 SE6       29.66F
Pittsfield     LGT RAIN  55  54  98 E5        29.62R
Quincy         CLOUDY    51  51 100 E8        29.59F FOG
Rockford       LGT RAIN  42  38  85 E15       29.80F WCI  34
$$


CITY           SKY/WX    TMP DP  RH WIND       PRES   REMARKS
Burlington     CLOUDY    45  45 100 E12       29.64S
Cedar Rapids   CLOUDY    42  42 100 E17       29.70R WCI  34
Des Moines     CLOUDY    43  41  93 NE14      29.68R
Kirksville     CLOUDY    48  50 100 NE10      29.59S FOG
Ottumwa        CLOUDY    44  43  96 E18       29.63F
St Louis       RAIN      62  58  86 SE14      29.60F FOG
$$


CITY           SKY/WX    TMP DP  RH WIND       PRES   REMARKS
Terre Haute    MOCLDY    53  50  89 E7        29.74R
Evansville     CLOUDY    62  54  74 SE5       29.72F
Indianapolis   CLOUDY    53  46  77 E6        29.79R
Lafayette      RAIN      45  43  93 E12       29.83R FOG
Madison        LGT RAIN  37  35  92 E16       29.86F WCI  28
Milwaukee      LGT RAIN  38  34  85 E18       29.89F WCI  28
$$






USA.gov is the U.S. government's official web portal to all federal, state and local government web resources and services.